Wind_Speed
3 2 3 6 4 3 6 6 5 2 2 4 6 4 4 2 2 1 2 5 5 5 6 8 6 5 4 2 2 4 5 7 7 7 8 9 9 9 9 8 7 7 7 7 6 5 6 7 9
6 5 4 5 2 5 5 5 3 3 4 6 6 6 7 8 6 5 8 9 7 6 3 6 7 8 7 6 5 5 6 7 9 9 9 9 8 7 6 6 6 6 8 8 7 7 8 9 10
4 5 5 3 4 5 5 6 5 4 5 8 11 12 13 11 8 8 10 8 6 7 6 6 8 10 10 10 9 8 7 9 8 9 9 9 9 8 7 7 6 5 6 7 8 8 8 9 10
4 5 5 5 5 7 7 8 6 6 7 9 12 13 13 11 11 10 10 8 10 9 7 7 8 10 11 12 11 10 10 10 10 10 10 10 9 9 8 7 6 7 8 8 9 9 9 9 10
5 5 6 6 8 8 8 8 7 8 10 14 16 15 15 14 12 13 13 13 12 13 7 6 7 9 11 12 12 12 12 11 12 12 12 12 12 11 10 10 10 9 9 9 10 10 11 11 11
5 5 5 9 10 9 10 9 8 9 9 10 13 15 15 14 14 15 15 15 13 8 9 11 11 10 10 12 13 13 13 13 13 13 14 14 14 14 14 12 12 12 11 11 12 12 12 11 11
5 6 7 9 9 11 10 10 10 10 10 10 12 16 16 15 17 17 17 16 13 11 12 14 13 11 10 11 11 12 12 13 14 14 15 16 16 17 16 15 14 15 14 13 15 15 14 13 12
5 7 7 11 11 11 12 12 11 10 12 12 12 10 13 16 19 19 17 17 16 15 15 13 10 10 11 11 12 13 12 13 13 14 16 17 17 17 18 18 17 17 16 16 16 16 17 15 13
5 6 7 9 10 11 11 12 13 14 12 14 16 16 17 18 19 19 20 20 18 16 14 12 14 13 14 15 14 14 14 15 15 15 17 17 18 18 18 18 19 20 19 18 18 18 18 19 15
7 7 6 8 9 9 10 12 14 17 17 15 16 18 19 20 21 21 21 21 20 20 19 18 17 18 20 21 19 18 16 15 16 17 17 17 17 17 18 19 21 21 21 20 19 19 19 20 18
7 8 8 8 10 12 12 14 15 18 15 18 17 16 19 20 21 24 26 26 26 26 26 26 27 27 28 25 22 22 22 20 19 18 18 18 19 20 21 21 21 22 21 21 22 20 20 21 20
6 7 9 9 11 13 14 15 17 16 11 14 12 16 15 15 20 24 27 29 29 30 30 30 30 29 27 24 25 24 25 26 25 24 22 22 23 23 23 22 22 22 22 21 21 22 21 22 23
9 8 9 11 11 16 17 13 11 6 7 9 12 16 14 16 20 22 24 27 29 30 27 23 23 23 24 25 26 26 27 28 28 29 28 26 27 28 27 25 23 23 23 21 22 22 21 22 21
13 13 11 11 15 15 11 10 11 13 12 12 14 14 19 26 25 24 26 26 29 29 26 24 26 24 24 28 29 30 30 29 30 31 30 32 29 30 30 30 28 25 24 20 21 22 21 21 22
15 18 14 13 13 12 17 15 14 17 19 17 25 29 31 28 20 24 27 29 30 30 30 30 34 33 33 34 34 31 29 27 27 28 32 35 33 31 32 31 30 28 26 23 20 22 22 23 23
14 13 8 5 10 16 20 24 14 13 30 34 31 29 27 28 26 25 27 30 32 33 34 36 36 38 40 42 40 36 32 32 32 35 31 33 35 34 33 29 27 27 26 23 27 23 22 23 23
10 14 19 21 18 19 22 34 33 33 35 35 32 30 31 29 27 28 30 32 34 34 35 38 39 41 41 41 42 39 36 36 36 34 35 34 34 32 31 27 21 25 29 25 27 22 24 24 24
22 25 25 25 23 33 38 39 33 38 35 36 33 28 27 29 32 36 37 37 39 42 42 43 44 45 45 45 41 40 38 35 34 33 32 31 34 33 31 29 29 28 30 31 32 29 27 26 23
20 22 27 32 32 35 27 42 42 38 29 17 12 20 32 35 38 38 36 35 34 34 35 38 41 44 46 46 45 43 42 38 36 33 33 30 31 35 37 36 34 31 30 32 27 34 28 25 20
18 26 32 31 15 31 41 44 23 12 11 18 29 23 22 26 28 30 31 31 32 33 35 37 40 43 45 45 45 43 39 33 31 32 31 29 30 31 34 36 35 33 30 31 25 23 30 24 24
26 26 25 27 34 35 26 36 15 15 27 14 13 17 16 18 24 32 35 37 38 37 39 39 39 40 41 41 39 40 38 29 31 35 34 30 28 30 33 33 34 34 32 28 25 23 25 25 24
22 16 21 28 28 21 29 12 25 25 10 11 12 21 29 36 33 32 33 36 37 37 37 37 38 39 38 37 35 33 32 33 29 30 30 27 27 28 31 34 34 36 33 31 29 28 27 26 29
12 22 24 29 34 26 16 9 9 10 11 16 25 29 28 29 29 30 31 32 34 38 42 40 44 39 40 42 39 35 38 37 33 27 24 25 22 26 30 33 36 36 35 34 32 31 30 28 27
20 29 40 19 21 5 9 7 9 7 17 31 30 33 31 28 30 30 31 31 35 36 37 29 27 31 31 32 34 34 32 32 32 27 23 20 21 26 28 31 34 35 37 36 34 31 27 24 21
27 34 12 6 3 4 6 19 21 31 20 30 28 29 28 29 31 33 32 31 33 31 25 26 29 28 28 27 27 30 29 28 23 25 24 20 21 23 24 28 31 32 32 30 30 29 25 25 17
20 7 4 6 3 13 35 11 12 20 22 27 23 21 32 34 33 34 22 28 29 31 28 29 29 29 27 26 27 24 36 34 33 25 26 23 20 20 21 25 27 28 28 26 26 27 23 21 20
9 7 10 19 27 12 7 13 24 15 25 19 21 34 39 32 26 25 31 31 28 27 27 26 28 26 27 24 23 24 18 28 28 30 29 24 20 19 20 20 23 24 24 23 25 25 28 23 19
17 24 7 6 4 5 7 25 25 13 21 36 29 26 31 27 27 28 27 21 23 27 26 26 27 27 27 25 24 21 21 25 24 24 24 25 19 18 17 17 22 23 22 21 23 20 23 28 25
19 9 5 4 7 3 5 13 21 39 26 32 37 29 27 30 31 27 27 22 25 30 28 28 27 26 27 26 24 19 26 22 21 23 24 19 16 17 16 16 22 22 23 21 20 20 21 21 32
13 7 4 6 10 22 22 38 40 16 37 33 32 27 25 23 25 24 22 23 26 28 26 26 25 25 26 26 25 23 23 18 20 20 16 15 15 15 14 17 20 22 20 19 19 17 17 37 32
Wind_Direction
240 211 171 165 167 179 155 166 175 195 246 298 303 267 256 241 269 321 329 311 284 264 246 237 238 255 267 279 318 342 347 350 350 351 355 356 349 338 326 315 311 303 302 300 304 312 326 337 344
221 207 191 186 208 180 174 173 184 218 259 282 298 292 276 271 285 286 310 322 330 330 299 256 253 261 271 280 286 296 312 321 327 335 341 345 346 342 337 327 320 310 305 299 303 311 322 329 333
242 216 195 176 198 191 178 171 184 206 246 282 298 302 298 282 286 271 284 294 308 321 327 290 280 280 282 284 287 292 295 296 297 301 315 326 327 333 337 340 330 316 307 305 308 310 316 320 321
263 241 222 214 195 189 182 189 206 240 259 269 266 276 287 278 277 277 288 290 308 308 299 294 287 278 274 273 278 283 283 283 285 284 289 298 305 310 315 315 323 325 318 312 307 306 305 306 310
247 240 227 220 203 202 196 206 227 253 273 278 282 280 279 279 277 278 285 293 309 317 299 311 296 281 272 271 274 276 277 280 280 280 279 283 290 292 296 304 307 308 311 311 310 312 314 314 312
240 247 241 219 211 212 207 219 249 270 284 285 282 283 284 286 285 281 281 289 296 292 290 305 301 287 281 279 278 278 281 280 279 280 280 279 281 283 282 285 293 296 302 304 304 308 310 312 313
255 246 250 224 215 218 227 241 255 274 288 282 286 287 289 288 284 285 290 289 291 291 291 292 289 281 281 281 280 278 279 281 281 279 279 278 276 277 281 284 289 295 295 297 300 302 301 305 306
245 245 246 228 228 233 241 254 264 271 281 290 309 293 286 283 285 289 288 288 291 291 289 286 284 288 286 282 278 274 277 276 278 280 277 273 274 276 279 283 285 286 289 294 293 294 296 300 300
263 252 262 243 242 246 245 245 261 274 277 289 299 294 290 287 284 284 289 291 290 287 282 277 289 299 302 289 278 280 278 276 274 272 274 274 276 276 278 282 284 285 286 286 287 285 286 289 292
269 271 270 257 252 254 263 270 278 283 289 297 293 288 286 287 288 288 289 291 292 294 295 290 291 295 300 302 284 277 276 280 273 273 273 270 268 270 273 279 282 282 281 280 282 282 280 283 289
290 270 265 263 266 271 275 277 281 288 299 295 295 285 281 281 285 288 292 294 296 297 297 298 300 300 301 297 285 279 276 275 278 270 264 261 262 265 269 275 280 281 278 277 276 276 278 277 283
283 280 276 277 282 280 276 281 293 300 304 298 312 315 317 294 281 279 281 282 281 282 285 288 290 292 294 293 288 284 276 276 272 272 267 262 260 262 266 270 275 280 282 277 275 275 275 273 279
290 278 281 280 282 278 284 293 292 15 289 300 315 314 299 303 304 295 284 278 282 284 284 283 284 288 287 288 290 284 274 270 271 272 269 266 262 264 262 265 268 274 276 279 276 269 268 269 272
297 292 287 285 284 287 290 289 301 280 272 267 310 291 282 284 293 282 278 275 281 281 278 281 287 282 282 284 285 287 286 281 266 262 266 267 267 270 267 264 262 263 272 268 263 263 261 262 270
305 305 302 290 267 272 289 288 289 278 274 281 305 303 294 288 278 271 270 273 272 273 274 280 285 285 285 291 293 287 281 281 279 280 269 263 267 270 268 267 266 267 264 262 259 260 260 266 266
315 312 330 281 278 292 294 299 284 274 296 305 310 303 293 287 282 270 268 268 268 269 272 276 274 279 287 292 291 287 286 285 285 283 274 266 259 262 265 264 268 264 261 264 262 256 256 259 263
325 307 301 297 297 292 298 292 299 300 302 306 300 292 287 284 285 280 273 270 270 270 273 274 275 275 276 282 284 282 282 288 287 288 279 265 258 256 262 250 264 274 268 262 256 251 251 251 255
308 305 302 300 307 301 299 298 302 309 308 298 297 288 287 288 287 284 283 281 278 279 281 282 280 279 281 281 277 279 281 285 293 288 277 270 261 257 250 255 265 271 272 260 248 245 248 244 247
303 301 302 306 310 301 304 304 309 310 303 291 290 296 293 287 287 285 285 287 290 290 288 283 282 278 276 277 277 278 281 286 290 284 277 270 264 260 259 260 260 263 265 266 265 251 244 260 252
307 305 305 308 309 299 308 308 320 308 292 288 291 300 297 294 298 300 302 300 295 290 285 279 276 276 276 278 280 281 279 272 275 275 273 267 256 254 255 255 254 256 257 261 269 239 250 256 254
307 309 310 312 319 318 317 315 298 281 297 305 302 297 303 309 310 307 303 298 295 292 289 284 283 284 282 281 282 282 276 260 267 268 266 262 259 251 245 248 247 247 247 250 253 257 250 259 264
314 306 309 310 320 314 305 287 290 295 282 295 300 310 310 307 301 298 295 295 296 297 297 292 287 284 281 281 278 275 274 276 262 256 252 256 261 257 247 240 239 241 243 248 248 254 259 259 256
313 313 311 307 300 292 289 255 280 294 284 301 307 310 315 308 302 298 293 293 296 295 295 299 302 297 294 289 283 287 267 264 263 259 253 249 257 259 252 241 239 238 238 243 248 246 254 257 257
320 316 318 305 288 265 184 344 270 267 298 303 316 321 317 311 311 312 306 305 311 314 313 311 310 298 291 283 274 274 273 266 256 245 254 264 261 253 254 244 236 236 234 236 240 241 243 244 264
314 324 333 327 328 281 206 329 279 290 311 310 316 319 326 322 314 322 321 321 320 319 310 301 301 293 300 292 282 267 259 263 261 251 263 262 264 261 256 242 233 230 231 234 239 242 243 245 261
317 351 262 276 267 292 300 263 295 308 310 314 315 318 325 317 311 311 317 319 317 319 313 303 300 296 298 295 295 276 252 259 268 266 260 266 270 269 256 235 226 220 228 233 239 243 251 257 247
311 297 283 282 281 276 256 278 291 308 315 312 309 312 315 313 306 305 314 319 318 316 313 308 303 306 300 301 298 289 271 256 261 249 257 260 273 266 245 227 216 217 225 227 234 240 233 254 257
287 293 278 252 308 298 296 302 289 307 309 311 312 314 313 305 293 314 316 314 323 327 323 315 308 313 309 308 305 288 289 270 270 260 260 257 266 258 237 217 211 215 221 216 217 239 245 248 249
297 284 227 261 281 243 302 284 285 298 318 317 311 309 306 308 305 309 314 310 321 330 323 324 313 313 312 312 306 292 287 279 275 261 257 256 248 244 221 210 211 211 206 216 230 243 252 212 194
266 218 213 319 295 282 284 280 302 306 315 319 313 306 298 293 304 305 301 301 315 324 319 317 321 320 320 319 310 302 292 287 270 254 250 237 238 226 203 208 206 202 211 219 233 242 227 186 171
Height
3150 3150 3151 3152 3156 3155 3153 3155 3155 3155 3156 3155 3156 3155 3155 3156 3156 3159 3156 3155 3154 3153 3154 3154 3154 3153 3153 3152 3152 3152 3152 3152 3152 3152 3152 3151 3151 3151 3150 3149 3148 3148 3147 3148 3147 3147 3146 3145 3143
3151 3152 3152 3151 3154 3153 3154 3154 3154 3156 3156 3156 3156 3155 3156 3156 3156 3156 3156 3156 3155 3155 3154 3154 3153 3153 3153 3152 3152 3152 3152 3152 3152 3152 3152 3151 3150 3149 3149 3148 3148 3147 3147 3147 3147 3147 3147 3145 3144
3150 3150 3152 3152 3153 3153 3153 3154 3155 3156 3155 3155 3155 3155 3155 3155 3156 3156 3155 3155 3154 3154 3153 3153 3153 3153 3152 3152 3152 3152 3151 3151 3151 3151 3151 3150 3151 3149 3148 3148 3147 3146 3146 3146 3146 3146 3146 3145 3143
3150 3151 3152 3151 3151 3152 3153 3153 3155 3155 3155 3155 3154 3155 3155 3155 3155 3155 3154 3154 3153 3152 3151 3151 3150 3150 3150 3150 3150 3150 3150 3150 3150 3150 3149 3149 3150 3149 3148 3147 3146 3146 3146 3145 3145 3145 3144 3143 3142
3150 3150 3150 3150 3151 3152 3152 3153 3154 3155 3154 3153 3153 3153 3153 3153 3153 3153 3153 3152 3152 3151 3150 3149 3148 3148 3148 3148 3148 3148 3148 3148 3148 3148 3147 3147 3148 3148 3146 3146 3145 3145 3145 3144 3144 3143 3143 3142 3141
3150 3150 3149 3149 3150 3151 3151 3152 3153 3152 3152 3152 3151 3151 3151 3151 3151 3151 3150 3150 3150 3149 3148 3147 3146 3146 3145 3145 3145 3145 3145 3145 3145 3145 3145 3145 3145 3145 3145 3145 3144 3144 3144 3143 3142 3141 3141 3141 3140
3148 3148 3148 3148 3149 3149 3150 3151 3151 3151 3150 3151 3151 3149 3149 3148 3147 3148 3148 3147 3147 3146 3145 3144 3143 3143 3143 3143 3143 3142 3142 3142 3143 3143 3143 3142 3143 3143 3142 3142 3142 3142 3142 3141 3140 3140 3139 3139 3138
3146 3147 3147 3146 3147 3148 3149 3149 3149 3150 3149 3148 3148 3147 3147 3146 3145 3145 3145 3144 3144 3143 3142 3141 3141 3140 3140 3140 3140 3140 3140 3140 3140 3140 3140 3140 3140 3140 3140 3139 3140 3139 3139 3139 3138 3137 3135 3135 3136
3145 3146 3145 3146 3146 3147 3147 3148 3148 3148 3147 3147 3145 3144 3144 3143 3142 3143 3142 3141 3140 3140 3140 3140 3139 3139 3138 3137 3137 3137 3136 3136 3136 3136 3136 3137 3137 3137 3137 3137 3136 3136 3136 3135 3135 3134 3133 3131 3133
3145 3145 3145 3145 3145 3145 3146 3146 3146 3145 3144 3144 3142 3141 3140 3139 3139 3138 3138 3137 3137 3136 3136 3136 3136 3136 3135 3134 3134 3133 3133 3132 3132 3132 3132 3132 3133 3134 3134 3133 3133 3133 3132 3131 3131 3131 3130 3129 3130
3144 3144 3144 3144 3144 3144 3144 3144 3143 3142 3142 3140 3139 3138 3137 3136 3134 3132 3132 3132 3132 3132 3132 3131 3131 3130 3130 3129 3129 3129 3129 3128 3128 3127 3128 3128 3129 3129 3129 3129 3129 3128 3128 3128 3128 3128 3127 3126 3126
3144 3143 3143 3143 3142 3141 3141 3140 3140 3140 3139 3137 3136 3135 3133 3132 3132 3131 3129 3128 3128 3127 3127 3126 3125 3125 3125 3124 3124 3124 3123 3123 3123 3123 3123 3122 3123 3123 3123 3124 3123 3123 3123 3124 3124 3124 3123 3122 3122
3142 3142 3142 3141 3141 3138 3138 3138 3137 3138 3135 3135 3134 3133 3129 3128 3127 3126 3124 3121 3120 3119 3119 3119 3119 3119 3119 3118 3117 3117 3117 3117 3118 3118 3118 3117 3117 3117 3117 3117 3118 3118 3118 3119 3119 3119 3119 3118 3118
3141 3140 3141 3140 3138 3136 3136 3135 3135 3133 3132 3131 3131 3129 3126 3123 3122 3120 3117 3116 3115 3113 3112 3112 3112 3113 3113 3113 3112 3110 3109 3109 3110 3110 3111 3111 3111 3111 3111 3111 3111 3112 3112 3112 3113 3114 3114 3114 3114
3138 3137 3137 3136 3136 3135 3133 3134 3132 3130 3128 3127 3127 3123 3119 3117 3115 3114 3112 3110 3109 3108 3106 3105 3104 3104 3104 3104 3104 3104 3103 3102 3102 3103 3104 3104 3105 3104 3104 3105 3106 3106 3106 3106 3108 3109 3110 3110 3111
3136 3136 3135 3135 3134 3133 3130 3127 3127 3126 3123 3121 3119 3115 3112 3110 3108 3106 3105 3104 3103 3102 3101 3100 3099 3097 3096 3095 3096 3095 3095 3095 3095 3094 3094 3094 3096 3096 3096 3097 3099 3100 3100 3099 3102 3103 3104 3105 3105
3136 3134 3133 3132 3132 3129 3127 3120 3123 3120 3117 3115 3111 3108 3105 3104 3102 3100 3099 3098 3096 3095 3094 3092 3091 3090 3088 3088 3087 3087 3087 3086 3085 3084 3084 3085 3086 3086 3086 3089 3092 3092 3094 3094 3097 3097 3098 3099 3100
3133 3130 3128 3127 3127 3123 3118 3114 3113 3112 3109 3103 3102 3100 3099 3097 3096 3094 3092 3091 3089 3087 3085 3084 3083 3081 3079 3078 3078 3077 3077 3077 3076 3074 3074 3075 3076 3078 3078 3081 3083 3085 3085 3087 3088 3090 3092 3092 3093
3130 3128 3124 3123 3122 3114 3110 3107 3105 3102 3099 3098 3097 3097 3095 3093 3089 3087 3085 3082 3080 3078 3076 3074 3073 3071 3070 3068 3068 3068 3068 3067 3066 3067 3066 3066 3067 3069 3070 3072 3075 3077 3078 3079 3078 3082 3086 3086 3087
3128 3125 3121 3118 3116 3113 3107 3099 3099 3097 3096 3096 3094 3091 3088 3086 3084 3081 3078 3075 3073 3071 3069 3066 3063 3062 3060 3060 3058 3058 3058 3059 3058 3058 3058 3057 3058 3059 3060 3063 3066 3069 3071 3071 3073 3075 3080 3079 3083
3124 3120 3117 3114 3108 3107 3102 3095 3094 3092 3091 3088 3087 3085 3083 3081 3079 3076 3073 3070 3067 3064 3061 3059 3057 3055 3052 3051 3052 3050 3050 3049 3050 3050 3049 3049 3049 3050 3050 3052 3056 3059 3063 3065 3066 3069 3072 3073 3076
3119 3116 3114 3111 3108 3102 3100 3091 3087 3086 3085 3084 3083 3081 3078 3076 3073 3069 3067 3063 3059 3056 3053 3051 3050 3048 3046 3044 3043 3043 3043 3040 3040 3041 3040 3039 3039 3040 3041 3042 3045 3049 3053 3056 3060 3061 3063 3065 3067
3118 3113 3110 3104 3099 3096 3096 3094 3081 3081 3081 3080 3078 3077 3074 3070 3067 3064 3061 3058 3054 3050 3046 3043 3040 3038 3036 3035 3034 3033 3034 3033 3033 3033 3031 3030 3030 3030 3031 3032 3034 3038 3043 3047 3051 3054 3055 3058 3061
3116 3111 3107 3101 3097 3092 3088 3089 3077 3078 3078 3075 3072 3069 3067 3065 3062 3059 3056 3053 3049 3045 3041 3037 3032 3028 3026 3024 3022 3022 3021 3023 3024 3026 3023 3021 3022 3022 3021 3022 3024 3028 3033 3038 3042 3045 3048 3051 3053
3114 3109 3104 3097 3096 3095 3091 3086 3079 3078 3075 3073 3069 3067 3063 3060 3058 3054 3050 3047 3044 3040 3035 3030 3027 3023 3020 3016 3014 3012 3012 3015 3016 3018 3013 3013 3014 3014 3012 3013 3015 3020 3025 3030 3034 3038 3040 3044 3046
3110 3108 3112 3108 3099 3090 3092 3085 3077 3075 3073 3070 3067 3064 3060 3056 3053 3050 3045 3042 3039 3035 3031 3026 3021 3017 3013 3009 3006 3003 3004 3005 3006 3009 3006 3006 3006 3006 3004 3004 3008 3015 3020 3023 3028 3032 3034 3038 3040
3110 3110 3109 3103 3095 3089 3080 3077 3074 3072 3071 3068 3065 3061 3057 3052 3048 3045 3041 3038 3034 3030 3025 3020 3015 3011 3008 3004 3000 2998 2997 2999 2999 3001 2999 3000 2999 2998 2996 2997 3004 3009 3013 3017 3021 3024 3027 3031 3034
3108 3105 3102 3100 3099 3091 3081 3077 3069 3068 3067 3067 3061 3057 3053 3048 3044 3040 3037 3034 3030 3025 3020 3015 3011 3005 3002 2999 2996 2994 2992 2991 2990 2991 2990 2993 2992 2993 2992 2994 3000 3004 3008 3012 3015 3017 3020 3022 3026
3101 3099 3099 3099 3098 3094 3083 3072 3069 3066 3063 3060 3055 3050 3047 3043 3039 3036 3032 3029 3026 3022 3017 3012 3007 3001 2998 2994 2991 2988 2986 2984 2983 2983 2985 2987 2987 2987 2988 2991 2995 2998 3002 3006 3009 3012 3014 3015 3021
3094 3095 3095 3097 3093 3092 3087 3060 3065 3061 3060 3055 3048 3043 3040 3037 3034 3031 3027 3025 3022 3017 3013 3009 3005 2999 2994 2990 2986 2982 2981 2978 2978 2977 2979 2981 2983 2984 2984 2988 2990 2994 2997 3001 3004 3005 3006 3011 3017